FW0903 Weather Reports


Display with metric or nautical units.
time (UTC)temp
F
wind
direction
speed
MPH
gust
MPH
rain 1hr
in
rain 24hr
in
rain mn
in
humidity
%
barometer
mb
20260504081020 51 0.0 3.0 0.02 5.32 0.30 71 1008.7
20260504050019 53 158 1.0 14.0 0.12 5.14 0.12 67 1010.7
20260504045019 53 0.0 2.0 0.17 5.10 0.08 67 1010.8
20260504044100 53 0.0 2.0 0.31 5.10 0.08 66 1010.9
20260504043040 53 0.0 2.0 0.41 5.06 0.04 66 1010.8
20260504042019 53 0.0 2.0 0.44 5.06 0.04 65 1010.9
20260504041020 53 0.0 2.0 0.45 5.05 0.03 64 1010.9
20260504040020 53 180 2.0 13.0 0.47 5.02 5.02 64 1011.0
20260504035020 53 0.0 3.0 0.42 4.93 4.93 64 1011.3
20260504034018 53 180 1.0 10.0 0.29 4.79 4.79 64 1011.4
20260504033020 53 158 2.0 13.0 0.17 4.65 4.65 64 1011.4
20260504032018 52 0.0 2.0 0.14 4.62 4.62 66 1011.3
20260504031041 52 0.0 3.0 0.12 4.60 4.60 67 1011.4
20260504030018 51 158 1.0 5.0 0.07 4.55 4.55 69 1011.4
20260504025020 51 0.0 1.0 0.03 4.51 4.51 72 1011.5
20260504024038 51 0.0 3.0 0.02 4.50 4.50 73 1011.6
20260504023038 50 0.0 1.0 0.00 4.48 4.48 74 1011.4
20260504022020 50 0.0 3.0 0.00 4.48 4.48 75 1011.4
20260504021020 49 0.0 2.0 0.00 4.48 4.48 77 1011.4
20260504020040 49 0.0 2.0 0.00 4.48 4.48 77 1011.5
20260504015020 48 0.0 1.0 0.00 4.48 4.48 78 1011.5
20260504014020 48 0.0 1.0 0.00 4.48 4.48 78 1011.6
20260504013020 48 0.0 2.0 0.00 4.48 4.48 79 1011.6
20260504012018 48 0.0 1.0 0.00 4.48 4.48 79 1011.6
20260504011019 48 0.0 1.0 0.00 4.48 4.48 79 1011.6
20260504010020 49 0.0 1.0 0.00 4.48 4.48 79 1011.7
20260504005020 49 0.0 1.0 0.00 4.48 4.48 78 1011.7
20260504004020 49 0.0 1.0 0.00 4.48 4.48 77 1011.7
20260504003018 50 0.0 1.0 0.00 4.48 4.48 76 1011.6
20260504002020 50 0.0 1.0 0.00 4.48 4.48 75 1011.5
20260504001020 50 0.0 1.0 0.00 4.48 4.48 75 1011.5
20260504000020 50 0.0 1.0 0.00 4.48 4.48 74 1011.6
20260503235020 50 0.0 1.0 0.00 4.48 4.48 73 1011.6
20260503234018 50 0.0 1.0 0.00 4.48 4.48 73 1011.6
20260503233020 50 0.0 1.0 0.04 4.48 4.48 72 1011.6
20260503232020 50 203 1.0 9.0 0.05 4.48 4.48 73 1011.8
20260503231020 50 0.0 1.0 0.18 4.48 4.48 73 1012.0
20260503230018 50 225 1.0 10.0 0.30 4.48 4.48 72 1012.2
20260503225040 51 225 8.0 15.0 0.55 4.48 4.48 71 1012.5
20260503224020 51 0 11.0 22.0 0.63 4.48 4.48 69 1012.7
20260503223022 52 0 8.0 21.0 0.75 4.44 4.44 68 1012.9
20260503222018 52 225 14.0 21.0 0.79 4.43 4.43 66 1012.8
20260503221020 53 0 12.0 22.0 0.79 4.30 4.30 64 1012.9
20260503220020 56 0 14.0 24.0 0.75 4.18 4.18 60 1012.7
20260503215139 58 0 9.0 20.0 0.56 3.93 3.93 47 1012.5
20260503214020 58 225 9.0 18.0 0.56 3.85 3.85 47 1012.3
20260503213019 59 0 5.0 14.0 0.48 3.69 3.69 46 1012.3
20260503212040 58 225 9.0 22.0 0.88 3.64 3.64 45 1012.5
20260503211020 59 225 11.0 20.0 0.78 3.51 3.51 44 1012.6
20260503210020 59 0 9.0 20.0 1.17 3.43 3.43 45 1012.7
20260503205020 59 225 8.0 21.0 1.15 3.37 3.37 45 1012.8
20260503204019 59 0 12.0 19.0 1.35 3.29 3.29 44 1012.9
20260503203020 59 225 3.0 17.0 1.45 3.21 3.21 45 1013.0
20260503202020 59 0 5.0 19.0 1.18 2.76 2.76 45 1013.1
20260503201020 59 225 10.0 20.0 1.35 2.73 2.73 44 1013.3
20260503200020 59 0 9.0 19.0 1.33 2.26 2.26 44 1013.5
20260503195020 59 225 1.0 3.0 1.77 2.22 2.22 44 1013.6
20260503194020 59 0 7.0 17.0 1.94 1.94 1.94 44 1013.7
20260503193020 60 0 2.0 14.0 1.76 1.76 1.76 44 1013.7
20260503192020 59 225 11.0 22.0 1.58 1.58 1.58 44 1013.9
20260503191020 60 0 5.0 14.0 1.38 1.38 1.38 43 1013.9
20260503190019 59 225 10.0 19.0 0.93 0.93 0.93 45 1014.1
20260503185020 59 0 11.0 20.0 0.45 0.45 0.45 43 1014.3
20260503184020 59 225 12.0 22.0 0.00 0.00 0.00 42 1014.5
20260503183020 59 225 4.0 17.0 0.00 0.00 0.00 44 1014.6
20260503182018 59 0 7.0 20.0 0.00 0.00 0.00 45 1014.7
20260503181020 58 0 10.0 17.0 0.00 0.00 0.00 44 1014.8
20260503180020 58 225 11.0 22.0 0.00 0.00 0.00 44 1015.0
20260503175018 58 0 5.0 17.0 0.00 0.00 0.00 46 1015.1
20260503174040 58 225 9.0 18.0 0.00 0.00 0.00 43 1015.3
20260503173019 58 225 5.0 19.0 0.00 0.00 0.00 46 1015.3
20260503172019 58 225 3.0 11.0 0.00 0.00 0.00 48 1015.4
20260503171018 58 225 9.0 21.0 0.00 0.00 0.00 45 1015.6